﻿ProjectID	SampleID	SampleType	TaxonomyID	UniqCodeType	UniqCode	SampleName	ScientificName	CommonName	CollectionYear	CollectionMonth	CollectionDay	SamplingTimeStartEnd	SamplingTimeAMPM	SamplingDuration	WeatherStartEnd	CollectionRegion	CollectionCountry	CollectionArea	CollectionLatitudeFrom	CollectionLatitudeTo	CollectionLongitudeFrom	CollectionLongitudeTo	Sex	TissueOrgan	TissueLipid	TissueMoist	Weight	WeightUnit	Length	LengthUnit	LengthType	GrowthStage	Age	Disease	TemperatureStartEnd	WaterTemperatureStartEnd	pH	DO	EC	EC_temp	Salinity	SS	WaterDepthM	TransparencyM	WaterColor	SedimentTemperatureStartEnd	SedimentDepthM	SedimentAppearance	SedimentColor	SedimentSurfaceColor	SedimentOdor	SedimentImpurities	SedimentMoistureOnSiteAnalysis	IgnitionLossOnSiteAnalysis	SoilDepthM	FlowRate	MeanPM10	MeanTotalSuspendedParticles	HumidityStartEnd	WindDirectionStartEnd	WindSpeedMSStartEnd	AmountOfCollectedAirStartEnd	Remarks	RegisterDate	UpdateDate
PRA000007	SAA000304	ST003	34880	es-BANK	ET00442		"Nyctereutes procyonoides"	"Raccoon dog"	2001	1	18					Asia	Japan	Kanagawa	35.31583333	35.53805833	139.1144417	139.6652778	Male	Liver	3.1																																							2016/9/30	2016/10/5
PRA000007	SAA000305	ST003	34880	es-BANK	ET00443		"Nyctereutes procyonoides"	"Raccoon dog"	2001	1	24					Asia	Japan	Kanagawa	35.31583333	35.53805833	139.1144417	139.6652778	Male	Liver	3.6																																							2016/9/30	2016/10/5
PRA000007	SAA000306	ST003	34880	es-BANK	ET00765		"Nyctereutes procyonoides"	"Raccoon dog"	2001	2	6					Asia	Japan	Kanagawa	35.31583333	35.53805833	139.1144417	139.6652778	Female	Liver	2.6																																							2016/9/30	2016/10/5
PRA000007	SAA000307	ST003	34880	es-BANK	ET00444		"Nyctereutes procyonoides"	"Raccoon dog"	2001	2	7					Asia	Japan	Kanagawa	35.31583333	35.53805833	139.1144417	139.6652778	Female	Liver	4.2																																							2016/9/30	2016/10/5
PRA000007	SAA000308	ST003	34880	es-BANK	ET00446		"Nyctereutes procyonoides"	"Raccoon dog"	2001	3	21					Asia	Japan	Kanagawa	35.31583333	35.53805833	139.1144417	139.6652778	Male	Liver	3.9																																							2016/9/30	2016/10/5
PRA000007	SAA000309	ST003	34880	es-BANK	ET00448		"Nyctereutes procyonoides"	"Raccoon dog"	2001	4	10					Asia	Japan	Kanagawa	35.31583333	35.53805833	139.1144417	139.6652778	Male	Liver	3.4																																							2016/9/30	2016/10/5
PRA000007	SAA000310	ST003	34880	es-BANK	ET00451		"Nyctereutes procyonoides"	"Raccoon dog"	2001	8	22					Asia	Japan	Kanagawa	35.31583333	35.53805833	139.1144417	139.6652778	Female	Liver	2.8																																							2016/9/30	2016/10/5
PRA000007	SAA000311	ST003	34880	es-BANK	ET00454		"Nyctereutes procyonoides"	"Raccoon dog"	2001	9	19					Asia	Japan	Kanagawa	35.31583333	35.53805833	139.1144417	139.6652778	Male	Liver	3.5																																							2016/9/30	2016/10/5
PRA000007	SAA000312	ST003	34880	es-BANK	ET00455		"Nyctereutes procyonoides"	"Raccoon dog"	2001	10	29					Asia	Japan	Kanagawa	35.31583333	35.53805833	139.1144417	139.6652778	Female	Liver	3.1																																							2016/9/30	2016/10/5
PRA000007	SAA000313	ST003	34880	es-BANK	ET00458		"Nyctereutes procyonoides"	"Raccoon dog"	2001	11	15					Asia	Japan	Kanagawa	35.31583333	35.53805833	139.1144417	139.6652778	Female	Liver	3																																							2016/9/30	2016/10/5
PRA000007	SAA000314	ST003	34880	es-BANK	ET00442		"Nyctereutes procyonoides"	"Raccoon dog"	2001	1	18					Asia	Japan	Kanagawa	35.31583333	35.53805833	139.1144417	139.6652778	Male	Muscle	1.9																																							2016/9/30	2016/10/5
PRA000007	SAA000315	ST003	34880	es-BANK	ET00443		"Nyctereutes procyonoides"	"Raccoon dog"	2001	1	24					Asia	Japan	Kanagawa	35.31583333	35.53805833	139.1144417	139.6652778	Male	Muscle	0.94																																							2016/9/30	2016/10/5
PRA000007	SAA000316	ST003	34880	es-BANK	ET00765		"Nyctereutes procyonoides"	"Raccoon dog"	2001	2	6					Asia	Japan	Kanagawa	35.31583333	35.53805833	139.1144417	139.6652778	Female	Muscle	1.1																																							2016/9/30	2016/10/5
PRA000007	SAA000317	ST003	34880	es-BANK	ET00444		"Nyctereutes procyonoides"	"Raccoon dog"	2001	2	7					Asia	Japan	Kanagawa	35.31583333	35.53805833	139.1144417	139.6652778	Female	Muscle	3																																							2016/9/30	2016/10/5
PRA000007	SAA000318	ST003	34880	es-BANK	ET00446		"Nyctereutes procyonoides"	"Raccoon dog"	2001	3	21					Asia	Japan	Kanagawa	35.31583333	35.53805833	139.1144417	139.6652778	Male	Muscle	4.7																																							2016/9/30	2016/10/5
PRA000007	SAA000319	ST003	34880	es-BANK	ET00448		"Nyctereutes procyonoides"	"Raccoon dog"	2001	4	10					Asia	Japan	Kanagawa	35.31583333	35.53805833	139.1144417	139.6652778	Male	Muscle	1.1																																							2016/9/30	2016/10/5
PRA000007	SAA000320	ST003	34880	es-BANK	ET00451		"Nyctereutes procyonoides"	"Raccoon dog"	2001	8	22					Asia	Japan	Kanagawa	35.31583333	35.53805833	139.1144417	139.6652778	Female	Muscle	7.55																																							2016/9/30	2016/10/5
PRA000007	SAA000321	ST003	34880	es-BANK	ET00454		"Nyctereutes procyonoides"	"Raccoon dog"	2001	9	19					Asia	Japan	Kanagawa	35.31583333	35.53805833	139.1144417	139.6652778	Male	Muscle	0.94																																							2016/9/30	2016/10/5
PRA000007	SAA000322	ST003	34880	es-BANK	ET00455		"Nyctereutes procyonoides"	"Raccoon dog"	2001	10	29					Asia	Japan	Kanagawa	35.31583333	35.53805833	139.1144417	139.6652778	Female	Muscle	8.42																																							2016/9/30	2016/10/5
PRA000007	SAA000323	ST003	34880	es-BANK	ET00458		"Nyctereutes procyonoides"	"Raccoon dog"	2001	11	15					Asia	Japan	Kanagawa	35.31583333	35.53805833	139.1144417	139.6652778	Female	Muscle	4.85																																							2016/9/30	2016/10/5
